This is the latest recevied weather packets stored in our database for station/object DL1EEM-L4. If no packets are shown the sender has not sent any weather packets the latest 10 day(s).
| Time | Temp. | Humidity | Pressure | Rain* | Wind** | Luminosity | Snow |
|---|---|---|---|---|---|---|---|
| 1777895155 | 19.44° C | 56% | 1011.6 hPa | - | - | - | - |
| 1777894255 | 18.89° C | 58% | 1011.7 hPa | - | - | - | - |
| 1777893355 | 18.33° C | 59% | 1011.7 hPa | - | - | - | - |
| 1777892454 | 17.78° C | 61% | 1011.7 hPa | - | - | - | - |
| 1777891566 | 18.33° C | 59% | 1011.8 hPa | - | - | - | - |
| 1777890668 | 17.78° C | 58% | 1011.8 hPa | - | - | - | - |
| 1777889772 | 18.33° C | 58% | 1011.9 hPa | - | - | - | - |
| 1777888868 | 18.33° C | 57% | 1011.7 hPa | - | - | - | - |
| 1777885259 | 15.56° C | 65% | 1011.9 hPa | - | - | - | - |
| 1777884361 | 15.56° C | 65% | 1011.6 hPa | - | - | - | - |
| 1777883458 | 15.56° C | 64% | 1011.5 hPa | - | - | - | - |
| 1777882558 | 15.56° C | 65% | 1011.4 hPa | - | - | - | - |
| 1777881672 | 15° C | 65% | 1011.2 hPa | - | - | - | - |
| 1777880758 | 15° C | 65% | 1011.2 hPa | - | - | - | - |
| 1777879858 | 15° C | 66% | 1011.1 hPa | - | - | - | - |
| 1777878960 | 15° C | 66% | 1011 hPa | - | - | - | - |
| 1777878058 | 15° C | 67% | 1011 hPa | - | - | - | - |
| 1777877158 | 14.44° C | 67% | 1010.9 hPa | - | - | - | - |
| 1777876257 | 14.44° C | 69% | 1010.8 hPa | - | - | - | - |
| 1777875357 | 14.44° C | 68% | 1010.7 hPa | - | - | - | - |
| 1777874457 | 13.89° C | 69% | 1010.7 hPa | - | - | - | - |
| 1777873557 | 14.44° C | 69% | 1010.5 hPa | - | - | - | - |
| 1777871757 | 13.89° C | 71% | 1010.3 hPa | - | - | - | - |
| 1777870857 | 13.89° C | 71% | 1010.2 hPa | - | - | - | - |
| 1777869983 | 13.89° C | 70% | 1010 hPa | - | - | - | - |
* Rain since midnight (hover to see other rain measurements)
** Current wind speed in m/s (hover to see current wind gust speed)